Погода в Бекрине

Россия / Смоленская область     55°13′29″N   35°01′50″E
В апреле 2022 года жителям России запретили посещать сайт meteo.paraplan.net по решению Генеральной прокуратуры. Аудитория сайта уменьшилась в 10 раз. Владельцы сайта не видят смысла в поддержке погодного сервера в таких условиях. Сайт будет закрыт в октябре.
темп.,
°C
ветер,
м/с
пор.,
м/с
влажн.,
%
обл.,
%
осадки,
мм/ч
давл.,
гПа
погр.,
м
5 октября, ср
ср500:00+5ю3596100 0.9 1008942
03:00+5юз2596100 2.2 1009524
06:00+5зсз2595100 1.4 1010932
09:00+5з4793100 1.9 1012554
12:00+6з468895 0.1 1014713
15:00+6з379294 0.4 1016599
18:00+6з2692100 0.2 1017238
21:00+6з379686 0.3 1018299
6 октября, чт
чт600:00+5зюз2697100 0.0 1019153
03:00+7юз2599100 0.2 1018208
06:00+7юз259998 0.1 1019193
09:00+8юз369473 0.1 1018244
12:00+9юз3794100 0.0 1018332
15:00+13юз478077 0.0 1017798
18:00+11юз410911 0.0 1016322
21:00+9юз413945 0.0 1016414
7 октября, пт
пт700:00+10зюз41394100 0.0 1017497
03:00+10зсз5139231 0.0 1018702
06:00+10зсз61179100 0.0 1020812
09:00+9зсз5983100 0.1 1022999
12:00+10з51078100 0.1 10231169
15:00+13з596615 0.1 10231167
18:00+9зюз38820 0.0 1024219
21:00+7зюз39955 0.0 1025222
8 октября, сб
сб800:00+6зюз37965 0.0 1025149
03:00+6юз27965 0.0 1025144
06:00+5юз37978 0.0 1025143
09:00+8юз399082 0.0 1024261
12:00+12юз486985 0.0 1023647
15:00+13ююз4864100 0.0 1020885
18:00+10ююз41178100 0.0 1019472
21:00+9ююз5148598 0.0 1019491
9 октября, вс
вс900:00+8ююз41487100 0.0 1018466
03:00+8ююз51387100 0.0 1016448
06:00+8ююз41285100 0.0 1015490
09:00+8юз3892100 0.3 1015296
12:00+9юз3894100 1.6 1016325
15:00+11з4779100 2.0 1016912
18:00+8зсз488747 0.1 1018378
21:00+8зсз4978100 0.1 1020393